www.pogodaiklimat.ru

Погода и климат >> Архив погоды >> Доминиканская Республика >> Бараона


ПОГОДА в Бараоне

  • Прогноз погоды в Бараоне
  • Монитор погоды в Бараоне

АРХИВ ПОГОДЫ в Бараоне

Время (UTC), дата Ветер
(напр.,м/с)
 
Видим.   Явления Облачность Т
(С)
Тd
(С)
f
(%)
Тe
(С)
Тes
(С)
Комфортность P
(гПа)
Po
(гПа)
Тmin
(С)
Tmax
(С)
R
(мм)
R24
(мм)
S
(см)
18 16.01 ЮВ 6 16 км 3/3 750 м
[Cu med, cong]
+29.4 +18.0 50 +34 +37 очень
душно
1017.7 1018.0 +19.5 +30.0
21 16.01 ЮВ 5 16 км 3/3 720 м
[Cu med, cong]
+27.6 +19.6 62 +33 +34 очень
душно
1016.6 1017.0
00 17.01 ЮВ 3 16 км 4/3 480 м
[Sc Ci fib]
+24.6 +20.9 80 +31 +31 очень
душно
1017.6 1018.0 +19.5 +30.3
12 17.01 З 3 16 км 1/1 300 м
[Sc]
+20.0 +18.8 93 +24 +24 комфорт 1019.0 1019.0 +18.8 +30.3 0.8
15 17.01 З 3 16 км 3/3 720 м
[Cu med, cong]
+27.4 +19.4 62 +33 +39 очень
душно
1012.0 1012.0
18 17.01 ЮВ 6 16 км 3/3 800 м
[Cu med, cong]
+28.8 +17.2 50 +33 +36 очень
душно
1018.0 1018.0 +19.6 +29.6
21 17.01 ЮВ 5 16 км 3/3 750 м
[Cu med, cong]
+28.2 +20.0 61 +34 +35 очень
душно
1016.5 1017.0
00 18.01 ЮВ 3 16 км 3/3 540 м
[Sc]
+25.0 +19.3 71 +30 +30 душно 1017.2 1017.0 +19.6 +29.6
12 18.01 штиль 0 16 км 5/3 300 м
[Sc Ac trans Ci fib]
+21.2 +20.0 93 +26 +27 душно 1018.0 1018.0 +20.4 +29.6 12
15 18.01 штиль 0 16 км 3/1 660 м
[Cu Sc Ac trans]
+26.8 +20.6 69 +33 +45 очень
душно
1019.3 1019.0
18 18.01 В 6 16 км 3/1 720 м
[Cu med, cong Ac trans Ci fib]
+29.5 +18.3 51 +34 +38 очень
душно
1017.2 1017.0 +20.4 +30.0
21 18.01 В 8 16 км 4/3 660 м
[Cu med, cong Ac trans Ci fib]
+16.4 +18.6 100 +15 +15 700.8 701.0
00 19.01 В 4 16 км 5/4 540 м
[Cu med, cong Ac trans Ci fib]
+24.6 +21.2 81 +31 +31 очень
душно
1017.2 1017.0 +20.4 +30.0
12 19.01 штиль 0 16 км 8/5 300 м
[Cb cap Ac trans Cs]
+21.8 +20.6 93 +28 +28 душно 1018.0 1018.0 +21.0 +30.0 3
15 19.01 ЮВ 5 16 км 4/4 660 м
[Cu med, cong Ac trans]
+27.8 +21.4 68 +35 +39 очень
душно
1019.4 1019.0
18 19.01 ЮВ 8 16 км 6/4 660 м
[Cu med, cong Ac trans Ci fib]
+28.4 +21.2 65 +36 +37 очень
душно
1017.8 1018.0 +21.0 +29.0
21 19.01 Ю 6 16 км 6/4 540 м
[Cb cap Ac trans Ci fib]
+27.0 +21.5 72 +34 +35 очень
душно
1015.9 1016.0
00 20.01 В 5 16 км 8/4 540 м
[Sc Ac trans Ci fib]
+25.0 +21.5 81 +32 +32 очень
душно
1016.8 1017.0 +21.5 +29.5
12 20.01 З 3 16 км 4/4 480 м
[Cb cap Ac trans Ci fib]
+20.6 +19.1 91 +25 +25 комфорт 1018.2 1018.0 +20.0 +29.5
15 20.01 ЮВ 6 8000 м слаб. дождь {туман} 9/5 540 м
[Cb cap As op Ci fib]
+23.0 +20.8 87 +30 +32 очень
душно
1020.2 1020.0 0.0
18 20.01 ЮВ 8 16 км {дождь, туман} 4/3 700 м
[Cu med, cong Ac trans Ci fib]
+29.5 +21.0 60 +37 +38 очень
душно
1017.6 1018.0 +20.0 +29.6
21 20.01 В 5 16 км 1/1 600 м
[Cu med, cong]
+27.6 +22.0 72 +36 +37 очень
душно
1015.7 1016.0
00 21.01 ЮВ 6 16 км 8/4 540 м
[Cu Sc Ac As Ci fib]
+25.6 +22.0 81 +33 +33 очень
душно
1017.2 1017.0 +20.0 +29.6
12 21.01 З 2 16 км 5/1 420 м
[Cu med, cong Ac trans Ci fib]
+20.5 +19.0 91 +25 +26 комфорт 1019.0 1019.0 +20.0 +29.6
15 21.01 ЮВ 5 16 км 3/3 700 м
[Cu med, cong]
+28.4 +20.0 60 +35 +39 очень
душно
1020.4 1020.0
18 21.01 ЮВ 8 16 км 5/1 720 м
[Cu med, cong Ci fib]
+29.6 +20.0 56 +36 +38 очень
душно
1018.0 1018.0 +20.0 +30.1
21 21.01 ЮВ 8 16 км 5/1 700 м
[Cu med, cong Ac trans Ci fib]
+28.4 +20.5 62 +35 +35 очень
душно
1016.6 1017.0
00 22.01 ЮВ 6 16 км 6/3 660 м
[Cu Sc Ac trans Ci fib]
+25.7 +20.2 72 +32 +32 очень
душно
1017.6 1018.0 +20.0 +30.1
12 22.01 штиль 0 16 км 4/1 420 м
[Cu med, cong Ci fib]
+19.0 +18.2 95 +21 +21 комфорт 1019.7 1020.0 +18.8 +30.1
15 22.01 З 3 16 км 6/1 660 м
[Cu med, cong Ci fib]
+27.2 +20.4 66 +34 +41 очень
душно
1021.5 1022.0
18 22.01 ЮВ 8 16 км 6/1 800 м
[Cu med, cong Ci fib]
+30.9 +19.6 51 +37 +39 очень
душно
1019.8 1020.0 +18.8 +31.1
21 22.01 ЮВ 6 16 км 3/3 720 м
[Sc]
+29.4 +20.7 60 +37 +37 очень
душно
1018.4 1018.0
00 23.01 ЮВ 3 16 км 3/3 540 м
[Cu Sc]
+25.0 +21.6 81 +32 +32 очень
душно
1019.3 1019.0 +18.8 +31.3
12 23.01 З 3 16 км 3/3 480 м
[Sc]
+19.6 +17.2 86 +22 +23 комфорт 1012.2 1012.0 +19.0 +31.3

 

Местоположение метеостанции Бараона (Доминиканская Республика): широта 18.20 долгота -71.10 высота над уровнем моря 3 м.

В архиве по умолчанию представлена погода в Бараоне за последнюю неделю. Архивные данные за месяц целиком и за предыдущие месяцы, начиная с января 2011 года, Вы можете получить, выбрав интересующий диапазон дат из раскрывающегося списка и нажав кнопку "Ввод!".


*Определитесь, кто Вы:
робот инопланетянин человек

Внимание! Время в таблицах - всемирное. Для получения местного времени необходимо прибавить поправку, которая равна -4 ч.

Смотрите также архив погоды в соседних городах и на ближайших метеорологических станциях:

Погода в Санто-Доминго (Доминиканская Республика) (131 км)
Погода в Сантьяго (Доминиканская Республика) (145 км)
Погода в Лас Америкас (Доминиканская Республика) (154 км)
Погода в Пуэрто-Плате (Доминиканская Республика) (182 км)
Погода в Сабана де ла Мар (Доминиканская Республика) (204 км)
Погода в Ла Романа аэропорту (Доминиканская Республика) (232 км)
Погода в Пунта-Кане (Доминиканская Республика) (292 км)
Погода в Пунта-де-Маиси (Куба) (393 км)
Погода в Сантьяго-де-Кубе (Куба) (537 км)
Погода в Пунта Лукреция (Куба) (570 км)

Пояснения к столбцам:

Ветер - указаны скорость ветра в м/с - средняя за 10 мин, порывы в срок и между сроками (в фигурных скобках) и направление, откуда дует ветер: С - северный, СВ - северо-восточный, В - восточный, ЮВ - юго-восточный, Ю - южный, ЮЗ - юго-западный, З - западный, СЗ - северо-западный.
Видимость - горизонтальная дальность видимости в метрах или километрах. При видимости от 1 до 10 км при отсутствии осадков обычно наблюдается дымка, при ухудшении видимости до 1 км и менее - туман. В сухую погоду видимость может ухудшаться дымом, пылью или мглою.
Явления - указаны атмосферные явления, наблюдавшиеся в срок или в последний час перед сроком; фигурными скобками обозначены явления, наблюдавшиеся между сроками (за 1-3 часа до срока); квадратными скобками обозначены град или гололедные отложения с указанием их диаметра в мм.
Облачность - указаны через наклонную черту общая и нижняя облачность в баллах и высота нижней границы облаков в метрах; квадратными скобками обозначены формы облаков: Ci - перистые, Cs - перисто-слоистые, Cc - перисто-кучевые, Ac - высококучевые, As - высокослоистые, Sc - слоисто-кучевые, Ns - слоисто-дождевые, Cu - кучевые, Cb - кучево-дождевые. Подробнее классификацию облаков см. в Атласе облаков (PDF).
T - Температура воздуха - температура, измеренная на высоте 2 м над землей.
Td - Температура точки росы - температура, при понижении до которой содержащийся в воздухе водяной пар достигнет насыщения.
f - Относительная влажность воздуха - влажноcть воздуха, измеренная на высоте 2 м над землей.
Te - Эффективная температура - температура, которую ощущает одетый по сезону человек в тени. Характеристика душности погоды. При расчете учитывается влияние влажности воздуха и скорости ветра на теплоощущения человека.
Tes - Эффективная температура на солнце - температура, которую ощущает человек, с поправкой на солнечный нагрев. Характеристика знойности погоды. Зависит от высоты солнца над горизонтом, облачности и скорости ветра. Ночью, в пасмурную погоду, а также при ветре 12 м/с и более поправка равна нулю.
P - Атмосферное давление - приведенное к уровню моря атмосферное давление.
Po - Атмосферное давление - измеренное на уровне метеостанции атмосферное давление.
Tmin - Минимальная температура - минимум температуры воздуха на высоте 2 м над землей.
Tmax - Максимальная температура - максимум температуры воздуха на высоте 2 м над землей.
R - Количество осадков - Количество выпавших осадков за период времени, мм. При наведении курсора мыши на число - период времени, за который выпало указанное количество осадков.
R24 - Количество осадков - Количество выпавших осадков за 24 часа, мм.
S - Снежный покров - Высота снежного покрова, см. При наведении курсора мыши на число - состояние снежного покрова и степень покрытия местности в баллах.